This demonstration page uses our WeatherBlox Daily Observations layout. Learn more.

Hourly Observations for April 10, 2019

Temp ( °F °C ) Dew Point ( °F °C ) Humidity (%) Winds ( mph kmh ) Pressure ( in mb ) Visibility ( mi km ) Precip ( " mm )
12:15 am 00:15 Clear 61 16 32 0 34 34 NNE 7 11 29.77 1008 10 16.09344 0 0
12:35 am 00:35 Clear 61 16 32 0 34 34 NNE 7 11 29.77 1008 10 16.09344 0 0
12:55 am 00:55 Clear 59 15 32 0 36 36 N 12 19 29.8 1009 10 16.09344 0 0
1:10 am 01:10 Clear 59 15 32 0 36 36 N 12 19 29.8 1009 10 16.09344 0 0
1:35 am 01:35 Clear 59 15 32 0 36 36 N 8 13 29.8 1009 10 16.09344 0 0
1:55 am 01:55 Clear 57 14 32 0 39 39 N 7 11 29.8 1009 10 16.09344 0 0
2:15 am 02:15 Clear 57 14 32 0 39 39 NNE 3 6 29.8 1009 10 16.09344 0 0
2:35 am 02:35 Clear 54 12 32 0 44 44 Calm 29.8 1009 10 16.09344 0 0
2:55 am 02:55 Clear 52 11 32 0 47 47 Calm 29.83 1010 10 16.09344 0 0
3:15 am 03:15 Clear 52 11 34 1 50 50 NW 5 7 29.83 1010 10 16.09344 0 0
3:35 am 03:35 Clear 50 10 34 1 54 54 NW 5 7 29.83 1010 10 16.09344 0 0
3:55 am 03:55 Clear 50 10 36 2 58 58 NW 5 7 29.83 1010 10 16.09344 0 0
4:15 am 04:15 Clear 50 10 36 2 58 58 Calm 29.83 1010 10 16.09344 0 0
4:35 am 04:35 Clear 48 9 36 2 62 62 Calm 29.83 1010 10 16.09344 0 0
4:55 am 04:55 Clear 45 7 37 3 76 76 W 5 7 29.85 1011 10 16.09344 0 0
5:15 am 05:15 Clear 46 8 36 2 66 66 W 3 6 29.83 1010 10 16.09344 0 0
5:35 am 05:35 Clear 45 7 36 2 71 71 WNW 3 6 29.85 1011 10 16.09344 0 0
5:55 am 05:55 Clear 48 9 34 1 58 58 Calm 29.83 1010 10 16.09344 0 0
6:15 am 06:15 Clear 50 10 36 2 58 58 Calm 29.85 1011 10 16.09344 0 0
6:35 am 06:35 Clear 48 9 36 2 62 62 Calm 29.85 1011 10 16.09344 0 0
6:55 am 06:55 Sunny 50 10 36 2 58 58 W 3 6 29.85 1011 10 16.09344 0 0
7:15 am 07:15 Sunny 43 6 36 2 76 76 SW 5 7 29.91 1013 10 16.09344 0 0
7:35 am 07:35 Sunny 48 9 37 3 66 66 W 3 6 29.88 1012 10 16.09344 0 0
7:55 am 07:55 Sunny 52 11 41 5 67 67 W 5 7 29.88 1012 10 16.09344 0 0
8:15 am 08:15 Sunny 54 12 41 5 63 63 W 3 6 29.88 1012 10 16.09344 0 0
8:35 am 08:35 Sunny 57 14 37 3 48 48 W 5 7 29.88 1012 10 16.09344 0 0
8:55 am 08:55 Sunny 59 15 36 2 42 42 NW 7 11 29.88 1012 10 16.09344 0 0
9:15 am 09:15 Partly Cloudy 61 16 36 2 39 39 NNW 9 15 29.88 1012 10 16.09344 0 0
9:35 am 09:35 Partly Cloudy 61 16 36 2 39 39 NW 9 15 29.88 1012 10 16.09344 0 0
9:55 am 09:55 Sunny 61 16 36 2 39 39 NNW 13 20 29.88 1012 10 16.09344 0 0
10:15 am 10:15 Sunny 63 17 36 2 37 37 NW 12 19 29.88 1012 10 16.09344 0 0
10:35 am 10:35 Sunny 63 17 36 2 37 37 NNW 9 15 29.88 1012 10 16.09344 0 0
10:55 am 10:55 Sunny 63 17 36 2 37 37 NW 8 13 29.88 1012 10 16.09344 0 0
11:15 am 11:15 Sunny 63 17 37 3 39 39 NW 10 17 29.88 1012 10 16.09344 0 0
11:35 am 11:35 Sunny 64 18 37 3 37 37 WNW 13 20 29.88 1012 10 16.09344 0 0
11:55 am 11:55 Sunny 64 18 37 3 37 37 NNW 10 17 29.88 1012 10 16.09344 0 0
12:15 pm 12:15 Sunny 64 18 37 3 37 37 NNW 13 20 29.88 1012 10 16.09344 0 0
12:35 pm 12:35 Sunny 66 19 39 4 37 37 NW 15 24 29.88 1012 10 16.09344 0 0
12:55 pm 12:55 Sunny 66 19 37 3 35 35 NW 5 7 29.88 1012 10 16.09344 0 0
1:15 pm 13:15 Sunny 68 20 37 3 33 33 NNW 20 31 29.88 1012 10 16.09344 0 0
1:35 pm 13:35 Sunny 68 20 39 4 35 35 NW 14 22 29.88 1012 10 16.09344 0 0
1:55 pm 13:55 Sunny 70 21 39 4 33 33 NW 9 15 29.88 1012 10 16.09344 0 0
2:15 pm 14:15 Sunny 68 20 37 3 33 33 NNW 14 22 29.85 1011 10 16.09344 0 0
2:35 pm 14:35 Sunny 68 20 37 3 33 33 N 14 22 29.85 1011 10 16.09344 0 0
2:55 pm 14:55 Sunny 68 20 36 2 30 30 N 16 26 29.85 1011 10 16.09344 0 0
3:15 pm 15:15 Sunny 68 20 37 3 33 33 NNW 13 20 29.85 1011 10 16.09344 0 0
3:35 pm 15:35 Sunny 68 20 37 3 33 33 NNW 9 15 29.85 1011 10 16.09344 0 0
3:55 pm 15:55 Sunny 68 20 37 3 33 33 NNW 10 17 29.85 1011 10 16.09344 0 0
4:15 pm 16:15 Sunny 70 21 37 3 31 31 NW 12 19 29.83 1010 10 16.09344 0 0
4:35 pm 16:35 Sunny 70 21 36 2 29 29 NNW 14 22 29.83 1010 10 16.09344 0 0
4:55 pm 16:55 Sunny 68 20 36 2 30 30 NNW 12 19 29.83 1010 10 16.09344 0 0
5:15 pm 17:15 Sunny 70 21 37 3 31 31 NNW 13 20 29.85 1011 10 16.09344 0 0
5:35 pm 17:35 Sunny 68 20 36 2 30 30 N 10 17 29.85 1011 10 16.09344 0 0
5:55 pm 17:55 Sunny 68 20 34 1 28 28 NNW 13 20 29.85 1011 10 16.09344 0 0
6:15 pm 18:15 Sunny 68 20 32 0 26 26 NNW 13 20 29.88 1012 10 16.09344 0 0
6:35 pm 18:35 Sunny 68 20 32 0 26 26 N 7 11 29.88 1012 10 16.09344 0 0
6:55 pm 18:55 Sunny 66 19 34 1 30 30 N 7 11 29.88 1012 10 16.09344 0 0
7:15 pm 19:15 Sunny 66 19 34 1 30 30 N 7 11 29.88 1012 10 16.09344 0 0
7:35 pm 19:35 Sunny 64 18 34 1 32 32 N 7 11 29.91 1013 10 16.09344 0 0
7:55 pm 19:55 Clear 63 17 34 1 34 34 N 7 11 29.91 1013 10 16.09344 0 0
8:15 pm 20:15 Clear 63 17 34 1 34 34 NNE 3 6 29.91 1013 10 16.09344 0 0
8:35 pm 20:35 Clear 63 17 34 1 34 34 NNE 3 6 29.94 1014 10 16.09344 0 0
8:55 pm 20:55 Clear 61 16 34 1 36 36 NNE 5 7 29.94 1014 10 16.09344 0 0
9:15 pm 21:15 Clear 59 15 34 1 39 39 Calm 29.94 1014 10 16.09344 0 0
9:35 pm 21:35 Clear 59 15 34 1 39 39 Calm 29.94 1014 10 16.09344 0 0
9:55 pm 21:55 Clear 59 15 34 1 39 39 NE 3 6 29.97 1015 10 16.09344 0 0
10:15 pm 22:15 Clear 54 12 37 3 54 54 NNE 3 6 30 1016 10 16.09344 0 0
10:35 pm 22:35 Clear 54 12 37 3 54 54 N 3 6 30 1016 10 16.09344 0 0
10:55 pm 22:55 Clear 55 13 36 2 47 47 NNE 3 6 30 1016 10 16.09344 0 0
11:15 pm 23:15 Clear 52 11 39 4 62 62 Calm 30 1016 10 16.09344 0 0
11:35 pm 23:35 Clear 52 11 41 5 67 67 N 5 7 30 1016 10 16.09344 0 0
11:55 pm 23:55 Clear 52 11 41 5 67 67 NNE 3 6 30.03 1017 10 16.09344 0 0

Powered by AerisWeather